Location: Agenbach
(47.2667°N, 11.4500°E)
Time: 07:03:34
(UTC+00:00)

Cosmos 540 Rocket - Pass Details

Date: 07 June 2020
Orbit: 741 x 753 km, 74.1° (Epoch: 04 July)

Event Time Altitude Azimuth Distance (km) Brightness Sun altitude
Exits shadow 00:41:05 26° 230° (SW) 1,429 4.4 -17.2°
Maximum altitude 00:43:46 54° 296° (WNW) 900 3.8 -17.0°
Drops below altitude 10° 00:48:48 10° 15° (NNE) 2,265 7.2 -16.7°
Sets 00:51:13 0° 20° (NNE) 3,192 8.5 -16.5°
